Showing default

COSMOS 1987 (GLONASS), 19749

Orbit data source: Space-Track

COSMOS 1987 (GLONASS), 19749 is a payload satellite owned by UNKS (CIS) in MEO that was launched on Tue, 10 Jan 1989 UTC via a PROTON-K/DM-2 launch vehicle from the Tyuratam Missile And Space Complex (TTMTR). Payload-class satellites include a variety of spacecraft equipped with specific instruments for various scientific and technological missions. These include communications satellites like Starlink; space stations such as the ISS; scientific satellites like the Hubble; Earth observation satellites from companies like Planet Labs, Umbra, and HawkEye 360; GPS; miniature CubeSats for education and research; and military/defense satellites.

Loading next visibility...
Identifier
19749, 1989-001A
Orbit
MEO
Country
Flag of CISCIS
Related business
Manufacturer
Omsk Av. Zav.
Mission
Non-operational Defense Navigation
Bus & Motor
URAGAN, Unknown motor
Mass
1,300 kg wet, ~1,200 kg dry
Launch date (UTC)
1989-01-10 (37 years ago)
Launch vehicle
PROTON-K/DM-2
Launch site
Tyuratam Missile And Space Complex (TTMTR)
Object type
Payload
Rocket body
Debris
Shape & HBR
Cyl + 2 Pan, 4.2 m
Radar Cross Section
14.707 m², Large (>1 m²)

Expand to show TLE details & history
Last TLE update: 3 days ago

TLE from 3 days ago
0 COSMOS 1987 (GLONASS)
1 19749U 89001A   26171.03861286 -.00000038  00000-0  00000-0 0  9991
2 19749  64.9370  72.1941 0004640 240.1940 303.1742  2.13073119291356
Epoch: 2026-06-20T00:55Z
TLE epoch observation values (Epoch: 2026-06-20T00:55:36.151Z)
Latitude
-3.03648°
Longitude
-28.5354°
Altitude
19,126.721 km
Speed
3.954 km/s
True Right ascension
16h 54m 29s
True Declination
-3° 01' 53"
Sunlit
Object was in daylight at epoch
Visualization orbit readout
Latitude
Unknown
Longitude
Unknown
Altitude
Unknown
Speed
Unknown
Apparent Right ascension
Unknown
Apparent Declination
Unknown
Sunlit
N/A
Visualization observer readout
Local Sidereal Time
00:50:44
Azimuth
Unknown
Elevation
Unknown
Doppler factor
Unknown
Orbital elements
Apogee altitude
19,143.646 km
Perigee altitude
19,119.973 km
Semi-major axis
25,509.947 km
Eccentricity
0.00046
Inclination
64.937°
RAAN
72.1941°
Arg. of periapsis
240.194°
True anomaly
303.12968°
Mean anomaly
303.1742°
Eccentric anomaly
303.15194°
Mean motion
0.5327 °/min
Orbital period
675.81 mins
BSTAR
0
Loading maneuver chart data...
Computing Atmospheric mass density...

Documentation

Showing up to 5 results
|